Content
SEND FEEDBACK

Daily
Averages
Monthly
Summary
United States of America

NACHES, WASHINGTON


Home > North America > United States > Washington
Elevation: 273 feet     Latitude: 46 39N     Longitude: 121 08W

WEATHER
 
SELECT A DAY
Number of Records: 183,439;   Date Range: 1/1/95 - 8/30/14
 
SHARE

PRINT THIS DATA

[ ← Previous Day ]
WEATHER ALMANAC - FEBRUARY 13, 2013
[ Next Day → ]
[ °C ]   °F
Weather ElementAverageHighLow
Temperature43.5 °F57.9 °F (2:53 pm)33.1 °F (4:53 am)
Dewpoint30.1 °F35.1 °F (11:53 am)26.1 °F (10:53 pm)
Humidity62.2 %82 % (4:53 am)35 % (2:53 pm)
Barometer30.30 in30.42 in (11:53 pm)30.22 in (12:53 am)
Wind Speed6.4 mph19.6 mph (3:53 pm)
Wind Gust25.3 mph (2:53 pm)
Weather ElementAverage
Visibility10 mi
Wind DirectionSSE (141.3 °)

Weather ElementTotal
Precipitation---
Heating Degree Days19.5 (Base 65)
Averaged from 24 records on February 13, 2013
WEATHER CONDITIONS BREAKOUT
WIND DIRECTION BREAKOUT
WEATHER BY HOUR - FEBRUARY 13, 2013
[ °C ]   °F
Local TimeTemperatureDewpointHumidityBarometerVisibilityWind DirectionWind SpeedGust SpeedPrecipitationEventsConditions
12:53 AM43.0 °F33.1 °F68 %30.22 in10.0 miCalmClear
1:53 AM39.0 °F32.0 °F76 %30.22 in10.0 miNNE (20°)5.8 mphClear
2:53 AM41.0 °F32.0 °F70 %30.22 in10.0 miWNW (300°)6.9 mphClear
3:53 AM36.0 °F30.0 °F79 %30.22 in10.0 miVariable4.6 mphClear
4:53 AM33.1 °F28.0 °F82 %30.23 in10.0 miCalmClear
5:53 AM35.6 °F30.2 °F81 %30.22 in10.0 miEast (90°)5.8 mphClear
6:53 AM34.0 °F28.9 °F82 %30.27 in10.0 miNNE (20°)3.5 mphClear
7:53 AM34.0 °F28.9 °F82 %30.29 in10.0 miCalmClear
8:53 AM39.9 °F33.1 °F77 %30.29 in10.0 miENE (60°)4.6 mphClear
9:53 AM46.9 °F34.0 °F61 %30.30 in10.0 miCalmClear
10:53 AM48.0 °F34.0 °F58 %30.30 in10.0 miNE (50°)4.6 mphClear
11:53 AM48.9 °F35.1 °F59 %30.30 in10.0 miEast (90°)3.5 mphClear
12:53 PM55.9 °F30.9 °F39 %30.27 in10.0 miWest (280°)17.3 mph23.0 mphClear
1:53 PM57.0 °F30.0 °F36 %30.27 in10.0 miWNW (290°)16.1 mphClear
2:53 PM57.9 °F30.0 °F35 %30.28 in10.0 miWest (270°)18.4 mph25.3 mphScattered Clouds
3:53 PM55.0 °F28.9 °F37 %30.29 in10.0 miWNW (290°)19.6 mphMostly Cloudy
4:53 PM53.1 °F28.9 °F40 %30.31 in10.0 miWest (280°)15.0 mphClear
5:53 PM50.0 °F28.9 °F44 %30.34 in10.0 miNW (310°)10.4 mphScattered Clouds
6:53 PM46.9 °F28.9 °F50 %30.38 in10.0 miCalmClear
7:53 PM41.0 °F28.0 °F60 %30.40 in10.0 miWest (280°)4.6 mphClear
8:53 PM37.9 °F28.0 °F68 %30.40 in10.0 miWSW (250°)4.6 mphClear
9:53 PM37.9 °F28.0 °F68 %30.39 in10.0 miWNW (290°)4.6 mphClear
10:53 PM35.1 °F26.1 °F70 %30.41 in10.0 miCalmClear
11:53 PM36.0 °F27.0 °F70 %30.42 in10.0 miSW (220°)4.6 mphClear
Hourly data recorded from KYKM, located miles away from Naches, Washington







STORIES FROM OUR PARTNERS